TimeAST,TemperatureF,Dew PointF,Humidity,Sea Level PressureIn,VisibilityMPH,Wind Direction,Wind SpeedMPH,Gust SpeedMPH,PrecipitationIn,Events,Conditions,WindDirDegrees,DateUTC
12:00 AM,62.6,60.8,94,30.01,2.5,NNW,12.7,-,N/A,Rain,Rain,330,2011-11-29 21:00:00
12:30 AM,60.8,60.8,100,30.01,2.5,NW,12.7,-,N/A,Rain,Rain,310,2011-11-29 21:30:00
1:00 AM,62.6,60.8,94,30.01,2.5,WNW,11.5,-,N/A,Rain,Light Rain,300,2011-11-29 22:00:00
1:30 AM,59.0,57.2,94,30.01,2.5,NW,16.1,-,N/A,Rain,Light Rain,310,2011-11-29 22:30:00
2:00 AM,59.0,57.2,94,29.98,2.5,NW,12.7,-,N/A,Rain,Light Rain,310,2011-11-29 23:00:00
2:30 AM,59.0,57.2,94,30.01,2.5,NW,9.2,-,N/A,Rain,Light Rain,310,2011-11-29 23:30:00
3:00 AM,59,56,88,29.99,2,NW,11.5,,,Rain,Light Rain,310,2011-11-30 00:00:00
3:00 AM,59.0,57.2,94,29.98,2.5,NW,11.5,25.3,N/A,Rain,Light Rain,310,2011-11-30 00:00:00
3:30 AM,59.0,57.2,94,30.01,2.5,WNW,12.7,-,N/A,Rain,Light Rain,300,2011-11-30 00:30:00
4:00 AM,59.0,55.4,88,29.98,2.5,WNW,11.5,23.0,N/A,Rain,Light Rain,300,2011-11-30 01:00:00
5:00 AM,59.0,53.6,82,30.04,3.7,WNW,11.5,-,N/A,Rain,Light Rain,300,2011-11-30 02:00:00
5:30 AM,59.0,55.4,88,30.04,4.3,WNW,9.2,-,N/A,,Mostly Cloudy,290,2011-11-30 02:30:00
6:00 AM,59.0,51.8,77,30.06,3.7,North,-9999.0,-,N/A,,Mostly Cloudy,0,2011-11-30 03:00:00
6:30 AM,59.0,51.8,77,30.04,4.3,NW,15.0,-,N/A,,Scattered Clouds,310,2011-11-30 03:30:00
7:00 AM,59.0,50.0,72,30.04,5.0,NW,16.1,-,N/A,,Mostly Cloudy,310,2011-11-30 04:00:00
7:30 AM,59.0,48.2,67,30.06,6.2,NW,15.0,-,N/A,,Scattered Clouds,310,2011-11-30 04:30:00
8:00 AM,59.0,50.0,72,30.06,6.2,NW,11.5,-,N/A,,Mostly Cloudy,310,2011-11-30 05:00:00
8:30 AM,60.8,50.0,68,30.06,6.2,NW,13.8,-,N/A,,Mostly Cloudy,310,2011-11-30 05:30:00
9:00 AM,61,52,65,30.09,6,NW,11.5,,,,Partly Cloudy,310,2011-11-30 06:00:00
9:00 AM,60.8,51.8,72,30.09,6.2,NW,11.5,-,N/A,,Scattered Clouds,310,2011-11-30 06:00:00
9:30 AM,62.6,53.6,72,30.09,5.6,NW,12.7,-,N/A,,Unknown,310,2011-11-30 06:30:00
10:00 AM,62.6,53.6,72,30.06,5.6,NW,12.7,-,N/A,,Scattered Clouds,310,2011-11-30 07:00:00
10:30 AM,64.4,55.4,73,30.06,5.6,NW,12.7,-,N/A,,Unknown,310,2011-11-30 07:30:00
11:00 AM,66.2,53.6,64,30.06,5.0,WNW,13.8,-,N/A,,Unknown,300,2011-11-30 08:00:00
11:30 AM,66.2,55.4,68,30.06,4.3,NW,12.7,-,N/A,,Unknown,310,2011-11-30 08:30:00
12:00 PM,66.2,53.6,64,30.04,4.3,NW,12.7,-,N/A,,Unknown,320,2011-11-30 09:00:00
12:30 PM,66.2,53.6,64,30.04,5.0,NW,13.8,-,N/A,,Unknown,310,2011-11-30 09:30:00
1:00 PM,66.2,53.6,64,30.04,-9999.0,NW,12.7,-,N/A,,Clear,310,2011-11-30 10:00:00
1:30 PM,66.2,53.6,64,30.04,-9999.0,WNW,11.5,-,N/A,,Clear,300,2011-11-30 10:30:00
2:00 PM,66.2,53.6,64,30.04,-9999.0,NW,13.8,-,N/A,,Clear,310,2011-11-30 11:00:00
2:30 PM,66.2,53.6,64,30.04,-9999.0,NW,12.7,-,N/A,,Clear,310,2011-11-30 11:30:00
3:00 PM,66,53,53,30.04,7,NW,12.7,,,,Partly Cloudy,310,2011-11-30 12:00:00
3:00 PM,66.2,53.6,64,30.04,-9999.0,NW,12.7,-,N/A,,Clear,310,2011-11-30 12:00:00
3:30 PM,66.2,53.6,64,30.04,-9999.0,NW,12.7,-,N/A,,Clear,320,2011-11-30 12:30:00
4:00 PM,64.4,51.8,64,30.04,-9999.0,WNW,12.7,-,N/A,,Clear,300,2011-11-30 13:00:00
4:30 PM,64.4,51.8,64,30.04,-9999.0,NW,10.4,-,N/A,,Clear,310,2011-11-30 13:30:00
5:00 PM,62.6,50.0,63,30.06,5.6,NW,11.5,-,N/A,,Unknown,310,2011-11-30 14:00:00
5:30 PM,62.6,48.2,59,30.06,5.6,WNW,12.7,-,N/A,,Unknown,300,2011-11-30 14:30:00
6:00 PM,62.6,46.4,55,30.06,-9999.0,NW,10.4,-,N/A,,Clear,310,2011-11-30 15:00:00
6:30 PM,62.6,46.4,55,30.06,-9999.0,NW,11.5,-,N/A,,Clear,310,2011-11-30 15:30:00
7:00 PM,62.6,48.2,59,30.09,-9999.0,NW,12.7,-,N/A,,Clear,310,2011-11-30 16:00:00
7:30 PM,60.8,44.6,55,30.09,-9999.0,WNW,11.5,-,N/A,,Clear,300,2011-11-30 16:30:00
8:00 PM,60.8,44.6,55,30.09,-9999.0,WNW,12.7,-,N/A,,Clear,300,2011-11-30 17:00:00
8:30 PM,60.8,44.6,55,30.09,-9999.0,WNW,11.5,-,N/A,,Clear,300,2011-11-30 17:30:00
9:00 PM,60.8,44.6,55,30.09,-9999.0,WNW,9.2,-,N/A,,Clear,300,2011-11-30 18:00:00
9:30 PM,60.8,44.6,55,30.09,-9999.0,WNW,11.5,-,N/A,,Clear,300,2011-11-30 18:30:00
10:00 PM,60.8,42.8,52,30.09,-9999.0,WNW,12.7,-,N/A,,Clear,300,2011-11-30 19:00:00
10:30 PM,59.0,42.8,55,30.09,-9999.0,WNW,10.4,-,N/A,,Clear,300,2011-11-30 19:30:00
11:00 PM,59.0,42.8,55,30.09,-9999.0,WNW,6.9,-,N/A,,Clear,290,2011-11-30 20:00:00
11:30 PM,59.0,44.6,59,30.09,-9999.0,WNW,9.2,-,N/A,,Clear,300,2011-11-30 20:30:00